• en Suisse
  • Liste des pays
  • À 7 jours
  • Température de l'eau
  • Carte satellitaire
  • Carte météo
  • Widgets météo
  • user-avatar
    Se connecter

    Météo par heure à Wellington

    Ce jour, 23 Juillet, Lundi

    Heure Température Précipitation Vent Pression Humidité
    00:00 +7°C° 0 mm 9 m/s 746 mmHg 68%
    01:00 +7°C° 0 mm 10 m/s 746 mmHg 68%
    02:00 +7°C° 0 mm 10 m/s 746 mmHg 68%
    03:00 +6°C° 0 mm 10 m/s 747 mmHg 67%
    04:00 +7°C° 0 mm 10 m/s 747 mmHg 68%
    05:00 +7°C° 0 mm 10 m/s 747 mmHg 69%
    06:00 +7°C° 0 mm 9 m/s 747 mmHg 70%
    07:00 +7°C° 0 mm 9 m/s 747 mmHg 71%
    08:00 +7°C° 0 mm 8 m/s 748 mmHg 71%
    09:00 +9°C° 0 mm 8 m/s 748 mmHg 72%
    10:00 +10°C° 0 mm 8 m/s 748 mmHg 70%
    11:00 +10°C° 0 mm 7 m/s 748 mmHg 68%
    12:00 +12°C° 0 mm 5 m/s 749 mmHg 66%
    13:00 +10°C° 0,2 mm 5 m/s 749 mmHg 70%
    14:00 +10°C° 0,2 mm 5 m/s 749 mmHg 75%
    15:00 +9°C° 0,2 mm 5 m/s 749 mmHg 79%
    16:00 +9°C° 0,2 mm 5 m/s 750 mmHg 82%
    17:00 +8°C° 0,2 mm 4 m/s 750 mmHg 85%
    18:00 +7°C° 0,2 mm 4 m/s 750 mmHg 88%
    19:00 +7°C° 0,2 mm 4 m/s 751 mmHg 88%
    20:00 +7°C° 0,2 mm 4 m/s 751 mmHg 89%
    21:00 +7°C° 0,2 mm 5 m/s 752 mmHg 89%
    22:00 +7°C° 0,2 mm 5 m/s 752 mmHg 89%
    23:00 +7°C° 0,2 mm 5 m/s 752 mmHg 89%

    Demain, 24 Juillet, Mardi

    Heure Température Précipitation Vent Pression Humidité
    00:00 +7°C° 0,2 mm 5 m/s 752 mmHg 89%
    01:00 +7°C° 0,2 mm 5 m/s 753 mmHg 89%
    02:00 +7°C° 0,2 mm 6 m/s 753 mmHg 89%
    03:00 +7°C° 0,2 mm 6 m/s 753 mmHg 89%
    04:00 +7°C° 0,2 mm 6 m/s 753 mmHg 89%
    05:00 +7°C° 0,2 mm 6 m/s 753 mmHg 90%
    06:00 +7°C° 0,2 mm 6 m/s 753 mmHg 90%
    07:00 +7°C° 0,1 mm 6 m/s 753 mmHg 90%
    08:00 +7°C° 0,1 mm 6 m/s 754 mmHg 90%
    09:00 +7°C° 0,1 mm 6 m/s 754 mmHg 89%
    10:00 +8°C° 0,1 mm 5 m/s 754 mmHg 86%
    11:00 +8°C° 0,1 mm 5 m/s 754 mmHg 83%
    12:00 +9°C° 0,1 mm 5 m/s 754 mmHg 80%
    13:00 +9°C° 0,2 mm 5 m/s 753 mmHg 81%
    14:00 +9°C° 0,2 mm 5 m/s 753 mmHg 82%
    15:00 +9°C° 0,2 mm 5 m/s 753 mmHg 83%
    16:00 +8°C° 0,1 mm 5 m/s 753 mmHg 85%
    17:00 +8°C° 0,1 mm 5 m/s 753 mmHg 88%
    18:00 +7°C° 0,1 mm 5 m/s 753 mmHg 90%
    19:00 +7°C° 0,1 mm 5 m/s 753 mmHg 90%
    20:00 +7°C° 0,1 mm 5 m/s 753 mmHg 91%
    21:00 +7°C° 0,1 mm 4 m/s 753 mmHg 91%
    22:00 +6°C° 0 mm 4 m/s 753 mmHg 91%
    23:00 +7°C° 0 mm 3 m/s 753 mmHg 92%

    Après-demain, 25 Juillet, Mercredi

    Heure Température Précipitation Vent Pression Humidité
    00:00 +7°C° 0 mm 3 m/s 753 mmHg 92%
    01:00 +7°C° 0 mm 3 m/s 752 mmHg 92%
    02:00 +6°C° 0 mm 2 m/s 752 mmHg 92%
    03:00 +6°C° 0 mm 2 m/s 752 mmHg 92%
    04:00 +6°C° 0 mm 2 m/s 752 mmHg 92%
    05:00 +6°C° 0 mm 2 m/s 752 mmHg 92%
    06:00 +6°C° 0 mm 2 m/s 752 mmHg 92%
    07:00 +6°C° 0 mm 2 m/s 752 mmHg 90%
    08:00 +7°C° 0 mm 2 m/s 752 mmHg 88%
    09:00 +7°C° 0 mm 2 m/s 752 mmHg 87%
    10:00 +8°C° 0 mm 2 m/s 752 mmHg 82%
    11:00 +9°C° 0 mm 2 m/s 751 mmHg 78%
    12:00 +10°C° 0 mm 2 m/s 751 mmHg 74%
    13:00 +10°C° 0,1 mm 2 m/s 751 mmHg 74%
    14:00 +10°C° 0,1 mm 2 m/s 750 mmHg 75%
    15:00 +10°C° 0,1 mm 2 m/s 749 mmHg 76%
    16:00 +9°C° 0,1 mm 2 m/s 750 mmHg 80%
    17:00 +9°C° 0,1 mm 1 m/s 750 mmHg 85%
    18:00 +8°C° 0,1 mm 1 m/s 750 mmHg 89%
    19:00 +8°C° 0 mm 1 m/s 750 mmHg 90%
    20:00 +8°C° 0 mm 1 m/s 750 mmHg 90%
    21:00 +7°C° 0 mm 0 m/s 750 mmHg 91%
    22:00 +8°C° 0 mm 1 m/s 750 mmHg 90%
    23:00 +6°C° 0 mm 2 m/s 749 mmHg 90%

    26 Juillet, Jeudi

    Heure Température Précipitation Vent Pression Humidité
    00:00 +6°C° 0 mm 2 m/s 749 mmHg 90%
    01:00 +5°C° 0 mm 3 m/s 749 mmHg 90%
    02:00 +5°C° 0 mm 3 m/s 748 mmHg 90%
    03:00 +5°C° 0 mm 4 m/s 748 mmHg 90%
    04:00 +6°C° 0 mm 4 m/s 748 mmHg 89%
    05:00 +6°C° 0 mm 5 m/s 747 mmHg 88%
    06:00 +7°C° 0 mm 5 m/s 747 mmHg 86%
    07:00 +7°C° 0 mm 5 m/s 747 mmHg 86%
    08:00 +8°C° 0 mm 6 m/s 747 mmHg 86%
    09:00 +8°C° 0 mm 6 m/s 747 mmHg 87%
    10:00 +9°C° 0 mm 6 m/s 746 mmHg 85%
    11:00 +10°C° 0 mm 7 m/s 746 mmHg 84%
    12:00 +11°C° 0 mm 7 m/s 746 mmHg 83%
    13:00 +11°C° 0,1 mm 7 m/s 745 mmHg 79%
    14:00 +11°C° 0,1 mm 7 m/s 745 mmHg 75%
    15:00 +12°C° 0,1 mm 7 m/s 744 mmHg 71%
    16:00 +11°C° 0 mm 7 m/s 745 mmHg 73%
    17:00 +10°C° 0 mm 6 m/s 745 mmHg 74%
    18:00 +9°C° 0 mm 5 m/s 746 mmHg 76%
    19:00 +8°C° 0 mm 5 m/s 746 mmHg 79%
    20:00 +7°C° 0 mm 4 m/s 747 mmHg 82%
    21:00 +6°C° 0 mm 4 m/s 747 mmHg 85%
    22:00 +7°C° 0 mm 3 m/s 748 mmHg 86%
    23:00 +7°C° 0 mm 3 m/s 748 mmHg 87%

    27 Juillet, Vendredi

    Heure Température Précipitation Vent Pression Humidité
    00:00 +6°C° 0 mm 2 m/s 748 mmHg 87%
    01:00 +6°C° 0 mm 2 m/s 748 mmHg 86%
    02:00 +5°C° 0 mm 3 m/s 748 mmHg 85%
    03:00 +5°C° 0 mm 3 m/s 748 mmHg 84%
    04:00 +5°C° 0 mm 3 m/s 748 mmHg 83%
    05:00 +5°C° 0 mm 3 m/s 748 mmHg 82%
    06:00 +5°C° 0 mm 4 m/s 748 mmHg 80%
    07:00 +6°C° 0 mm 4 m/s 748 mmHg 79%
    08:00 +6°C° 0 mm 4 m/s 749 mmHg 78%
    09:00 +7°C° 0 mm 4 m/s 749 mmHg 76%
    10:00 +8°C° 0 mm 4 m/s 749 mmHg 71%
    11:00 +11°C° 0 mm 4 m/s 749 mmHg 66%
    12:00 +12°C° 0 mm 5 m/s 749 mmHg 61%
    13:00 +12°C° 0 mm 5 m/s 749 mmHg 61%
    14:00 +12°C° 0 mm 5 m/s 748 mmHg 62%
    15:00 +12°C° 0 mm 5 m/s 748 mmHg 63%
    16:00 +10°C° 0 mm 5 m/s 748 mmHg 66%
    17:00 +9°C° 0 mm 5 m/s 749 mmHg 70%
    18:00 +8°C° 0 mm 5 m/s 749 mmHg 74%
    19:00 +8°C° 0 mm 5 m/s 749 mmHg 75%
    20:00 +8°C° 0 mm 6 m/s 750 mmHg 75%
    21:00 +8°C° 0 mm 6 m/s 750 mmHg 76%
    22:00 +8°C° 0 mm 6 m/s 750 mmHg 77%
    23:00 +7°C° 0 mm 6 m/s 750 mmHg 77%

    28 Juillet, Samedi

    Heure Température Précipitation Vent Pression Humidité
    00:00 +7°C° 0 mm 6 m/s 750 mmHg 78%
    01:00 +7°C° 0 mm 6 m/s 750 mmHg 78%
    02:00 +7°C° 0 mm 6 m/s 750 mmHg 77%
    03:00 +7°C° 0 mm 6 m/s 750 mmHg 77%
    04:00 +8°C° 0 mm 7 m/s 750 mmHg 77%
    05:00 +8°C° 0 mm 7 m/s 750 mmHg 76%
    06:00 +8°C° 0 mm 7 m/s 751 mmHg 76%
    07:00 +8°C° 0 mm 7 m/s 751 mmHg 74%
    08:00 +9°C° 0 mm 7 m/s 751 mmHg 72%
    09:00 +9°C° 0 mm 7 m/s 751 mmHg 71%
    10:00 +10°C° 0 mm 8 m/s 751 mmHg 68%
    11:00 +11°C° 0 mm 8 m/s 751 mmHg 65%
    12:00 +12°C° 0 mm 8 m/s 751 mmHg 62%
    13:00 +12°C° 0 mm 9 m/s 751 mmHg 65%
    14:00 +12°C° 0 mm 9 m/s 750 mmHg 68%
    15:00 +12°C° 0 mm 9 m/s 750 mmHg 70%
    16:00 +11°C° 0 mm 9 m/s 750 mmHg 74%
    17:00 +10°C° 0 mm 9 m/s 750 mmHg 77%
    18:00 +10°C° 0 mm 8 m/s 750 mmHg 80%
    19:00 +10°C° 0 mm 9 m/s 750 mmHg 80%
    20:00 +10°C° 0 mm 9 m/s 749 mmHg 80%
    21:00 +9°C° 0 mm 10 m/s 749 mmHg 80%
    22:00 +9°C° 0 mm 10 m/s 749 mmHg 79%
    23:00 +8°C° 0 mm 10 m/s 749 mmHg 78%
    Voir plus